CDT,Max TemperatureF,Mean TemperatureF,Min TemperatureF,Max Dew PointF,MeanDew PointF,Min DewpointF,Max Humidity, Mean Humidity, Min Humidity, Max Sea Level PressureIn, Mean Sea Level PressureIn, Min Sea Level PressureIn, Max VisibilityMiles, Mean VisibilityMiles, Min VisibilityMiles, Max Wind SpeedMPH, Mean Wind SpeedMPH, Max Gust SpeedMPH,PrecipitationIn, CloudCover, Events, WindDirDegrees
2013-3-1,55,44,32,30,27,23,75,52,29,30.29,30.23,30.19,10,10,10,24,8,30,0.00,1,,321
2013-3-2,52,42,31,27,22,16,78,52,26,30.40,30.32,30.27,10,10,9,21,8,26,0.00,1,Rain-Snow,341
2013-3-3,68,49,29,39,28,23,85,55,24,30.26,30.11,29.91,10,10,10,23,11,31,0.00,0,,180
2013-3-4,78,65,52,55,49,40,83,58,33,29.89,29.75,29.67,10,10,10,24,18,38,0.00,0,,190
2013-3-5,65,53,40,56,29,17,78,49,19,30.36,30.17,29.81,10,10,10,30,14,44,T,2,,335
2013-3-6,62,48,34,28,21,14,56,36,15,30.46,30.34,30.24,10,10,10,13,5,16,0.00,0,,11
2013-3-7,70,54,38,31,28,22,59,40,20,30.30,30.22,30.16,10,10,10,15,9,22,0.00,0,,138
2013-3-8,69,57,45,51,45,35,72,57,41,30.25,30.15,30.06,10,10,10,16,8,21,T,4,,140
2013-3-9,74,66,57,59,56,51,84,71,57,30.06,29.90,29.75,10,10,10,26,14,31,0.00,7,,162
2013-3-10,66,54,41,61,45,28,93,67,40,30.08,29.86,29.69,10,9,2,25,12,31,0.55,6,Rain-Thunderstorm,291
2013-3-11,56,46,36,30,27,22,75,51,26,30.11,30.07,30.02,10,10,10,20,8,24,0.00,0,,305
2013-3-12,69,52,34,31,25,18,76,46,16,30.30,30.18,30.08,10,10,10,13,4,18,0.00,0,,78
2013-3-13,69,55,41,37,30,24,73,46,18,30.47,30.39,30.31,10,10,10,10,4,14,0.00,0,,91
2013-3-14,74,59,44,44,37,32,65,47,28,30.40,30.32,30.22,10,10,10,20,9,24,0.00,0,,178
2013-3-15,78,66,53,51,47,43,77,54,31,30.22,30.10,29.96,10,10,9,24,13,28,0.00,0,,200
2013-3-16,80,70,59,58,53,47,80,58,36,29.94,29.86,29.75,10,10,10,25,16,32,0.00,0,,192
2013-3-17,76,69,62,61,59,57,93,75,57,29.83,29.78,29.68,10,10,8,23,10,28,T,7,Rain,185
2013-3-18,78,66,54,63,56,38,87,64,41,30.01,29.81,29.69,10,10,10,21,11,26,0.00,5,,282
2013-3-19,71,60,48,44,38,34,80,55,29,30.11,30.03,29.95,10,10,10,18,9,25,T,1,Rain,73
2013-3-20,70,59,48,35,28,21,56,36,16,30.28,30.17,30.06,10,10,10,18,7,24,0.00,0,,35
2013-3-21,68,58,48,53,39,27,72,53,34,30.04,29.84,29.65,10,10,10,24,11,29,0.04,6,,138
2013-3-22,79,64,49,60,54,46,93,73,53,29.83,29.72,29.65,10,9,5,23,9,28,T,8,Rain,88
2013-3-23,56,52,47,54,50,46,100,86,72,29.86,29.74,29.65,10,5,1,23,7,29,1.12,8,Rain-Thunderstorm,32
2013-3-24,53,46,38,52,36,26,86,61,35,30.17,29.96,29.77,10,9,2,29,16,39,0.01,5,Rain,323
2013-3-25,55,43,30,25,20,14,72,46,20,30.41,30.30,30.18,10,10,10,23,10,33,0.00,0,,331
2013-3-26,57,43,28,28,21,17,78,50,22,30.52,30.41,30.35,10,10,10,16,4,22,0.00,0,,348
2013-3-27,70,53,35,37,28,24,70,44,18,30.38,30.28,30.16,10,10,10,20,10,24,0.00,1,,168
2013-3-28,71,61,50,53,48,40,77,65,53,30.28,30.21,30.15,10,10,10,17,9,21,0.00,6,,163
2013-3-29,74,66,58,57,55,53,86,70,53,30.22,30.17,30.12,10,10,10,18,10,23,0.00,8,,182
2013-3-30,74,65,56,61,58,54,93,79,64,30.11,30.04,29.93,10,9,2,22,8,26,0.64,6,Rain-Thunderstorm,199
2013-3-31,72,64,55,63,58,54,90,74,57,30.02,29.94,29.87,10,9,2,28,8,36,0.55,5,Rain-Thunderstorm,129